Flag for Germany Weather past 2 weeks in Güstrow, Mecklenburg-Western Pomerania, Germany

Now
54 °F

Scattered clouds.


Feels Like: 54 °F
Forecast: 45 / 70 °F
Wind: 1 mph from Northwest

Location: Laage

Current Time: Jul 31, 2015 at 10:01:07 PM

Latest Report: Jul 31, 2015 at 9:20 PM


Visibility: N/A

Pressure: 30.07 "Hg

Humidity: 77%

Dew point: 46 °F

Location of GüstrowLocation

Historic Weather in Güstrow — Graph

°F

Güstrow temperature yesterday

Maximum temperature yesterday: 59 °F (at 2:20 PM)
Minimum temperature yesterday: 54 °F (at 12:20 AM)
Average temperature yesterday: 56 °F

Past Weeks' High & Low Weather Summary

 TemperatureHumidityPressure
High82 °F (Jul 17, 6:20 PM)100% (Jul 18, 6:20 AM)30.07 "Hg (Jul 18, 6:20 AM)
Low48 °F (Jul 24, 4:20 AM)36% (Jul 24, 4:20 PM)29.45 "Hg (Jul 25, 3:20 PM)
Average62 °F77%29.79 "Hg
* Reported Jul 16 8:20 PM — Jul 31 8:20 PM, Güstrow, Weather by CustomWeather, © 2015

Note: Actual official high and low records may vary slightly from our data, if they occured in-between our weather recording intervals... More about our weather records

Advertising

Güstrow weather history for previous 24 hours

 ConditionsComfort  
Time TempWeatherWind HumidityBarometerVisibility
8:20 PM
Fri, Jul 31
59 °FPartly sunny.12 mph59%30.07 "HgN/A
7:20 PM61 °FPartly sunny.10 mph55%30.04 "HgN/A
6:20 PM63 °FPartly sunny.12 mph52%30.04 "HgN/A
5:20 PM63 °FPartly sunny.15 mph49%30.04 "HgN/A
4:20 PM63 °FPartly sunny.15 mph45%30.04 "HgN/A
3:20 PM63 °FPartly sunny.13 mph49%30.07 "HgN/A
2:20 PM61 °FPartly sunny.15 mph52%30.04 "HgN/A
1:20 PM61 °FPartly sunny.17 mph52%30.04 "HgN/A
12:20 PM59 °FPartly sunny.16 mph51%30.04 "HgN/A
11:20 AM59 °FPartly sunny.18 mph55%30.01 "HgN/A
10:20 AM59 °FScattered clouds.17 mph63%30.01 "HgN/A
9:20 AM57 °FPassing clouds.16 mph72%30.01 "HgN/A
8:20 AM55 °FPartly sunny.14 mph77%29.98 "HgN/A
7:20 AM54 °FPartly sunny.14 mph82%29.95 "HgN/A
6:20 AM54 °FPassing clouds.13 mph82%29.95 "HgN/A
5:20 AM54 °FPassing clouds.13 mph88%29.95 "HgN/A
4:20 AM54 °FPassing clouds.13 mph88%29.92 "HgN/A
3:20 AM54 °FPassing clouds.15 mph88%29.92 "HgN/A
2:20 AM54 °FPassing clouds.16 mph94%29.89 "HgN/A
1:20 AM54 °FPassing clouds.16 mph88%29.89 "HgN/A
12:20 AM54 °FPassing clouds.13 mph94%29.89 "HgN/A
11:20 PM
Thu, Jul 30
55 °FPartly cloudy.16 mph82%29.86 "HgN/A
10:20 PM55 °FPassing clouds.13 mph88%29.86 "HgN/A
Weather by CustomWeather, © 2015

See weather overviewHow to use our weather pages